Location: Castelbajac
(43.1838°N, 0.3574°E)
Time: 19:26:06
(UTC+00:00)

Daily predictions for brighter satellites

Satellite Brightness Start Highest point End
(mag) Time Altitude Azimuth Time Altitude Azimuth Time Altitude Azimuth
Cosmos 1814 Rocket 4.0 19:33:18 10° NNW 19:38:34 90° ENE 19:43:44 10° SSE
Meteor 2-15 4.5 19:34:12 10° S 19:40:15 86° E 19:46:21 10° N
SL-4 R/B 2.5 19:36:16 10° NW 19:40:35 63° NNE 19:45:11 10° ESE
X-37B 1.0 19:40:15 10° W 19:43:26 62° N 19:46:36 10° ENE
IRS-1A Rocket 4.5 19:44:49 10° SSE 19:50:28 64° ENE 19:56:16 10° N
SPOT 3 Rocket 4.4 19:49:20 10° SE 19:53:54 33° ENE 19:58:30 10° N
CZ-4 R/B 4.4 19:52:43 10° WSW 19:54:51 14° W 19:56:59 10° WNW
ERS-2 3.1 19:52:04 10° N 19:55:37 51° WNW 19:59:07 10° SSW
Cosmos 1844 4.0 19:50:18 10° S 19:55:41 44° ESE 20:01:03 10° NE
Resurs 1-3 3.8 19:51:40 10° SSE 19:55:57 56° ENE 20:00:16 10° N
Cosmos 968 Rocket 3.5 19:51:22 10° S 19:56:32 62° ESE 20:01:42 10° NNE
Cosmos 1743 Rocket 3.5 19:53:18 10° N 19:57:38 72° E 20:01:59 10° SSE
BREEZE-M DEB (TANK) 4.0 19:53:30 10° WNW 19:57:48 74° N 20:05:05 10° E
ATLAS 5 CENTAUR R/B 3.4 19:55:05 10° NNW 20:00:03 33° NE 20:05:41 10° ESE
BREEZE M DEB (TANK) 4.1 19:59:42 10° W 20:03:08 66° NNW 20:13:39 10° ENE
Cosmos 1486 Rocket 4.1 19:58:52 10° S 20:04:04 58° ESE 20:09:19 10° NNE
Intercosmos 25 Rocket 4.0 20:00:27 10° N 20:07:00 66° ENE 20:11:03 10° SSE
IGS 5A 4.2 20:04:31 13° SE 20:07:49 36° ENE 20:11:38 10° N
Cosmos 1500 Rocket 3.6 20:05:12 10° N 20:09:37 83° W 20:13:58 10° S
Cosmos 2221 3.7 20:05:44 10° SSW 20:09:51 46° WNW 20:14:03 10° N
S3M 4.2 20:04:19 10° SSE 20:10:32 57° E 20:16:44 10° NNE
BREEZE-M R/B 1.6 20:08:38 10° WSW 20:11:30 82° SSE 20:13:55 10° ENE
USA 186 3.8 20:10:17 10° SSW 20:12:19 20° W 20:14:16 10° NW
FALCON 9 DEB 3.3 20:15:17 10° WNW 20:18:14 49° SW 20:20:03 20° SSE
Cosmos 1933 3.6 20:17:12 10° SSE 20:21:02 46° E 20:24:55 10° NNE
USA 245 4.3 20:23:48 13° ENE 20:23:48 13° ENE 20:24:53 10° NE
FALCON 9 DEB 3.7 20:21:36 10° WNW 20:24:28 39° SW 20:26:04 21° SSE
Cosmos 1242 Rocket 2.9 20:24:03 16° SSE 20:26:33 42° E 20:29:57 10° NNE
OBJECT-B 2.9 20:24:09 10° SSW 20:26:54 25° W 20:29:41 10° NW
Cosmos 1553 Rocket 4.2 20:23:06 10° SSW 20:29:11 72° W 20:35:24 10° N
Cosmos 1437 Rocket 3.0 20:26:40 10° SSW 20:30:28 69° W 20:34:24 10° N
BREEZE M DEB (TANK) 4.0 20:25:40 10° WNW 20:31:22 33° N 20:33:49 10° ENE
Resurs 01 Rocket 1.6 20:29:42 16° SSE 20:33:17 82° ENE 20:37:45 10° N
FALCON 9 DEB 3.5 20:30:24 10° WNW 20:33:19 43° SW 20:34:36 26° SSE
Spot 2 Rocket 4.3 20:34:13 21° ESE 20:37:00 37° ENE 20:41:36 10° N
SJ 16-02 3.6 20:38:19 10° E 20:38:19 10° E 20:38:27 10° ENE
DELTA 2 R/B (1) 3.8 20:33:07 10° W 20:38:32 54° S 20:41:51 23° ESE
Sich 1 2.9 20:35:35 10° N 20:39:57 86° E 20:43:00 19° S
Cosmos 2082 Rocket 4.3 20:39:45 10° N 20:42:52 15° NE 20:45:59 10° ENE
Meteor 1-20 Rocket 4.1 20:37:24 10° N 20:43:03 82° E 20:47:11 18° SSE
BREEZE-M DEB (TANK) 3.9 20:42:49 10° W 20:44:42 19° SSW 20:45:33 18° S
Cosmos 1782 3.1 20:43:16 27° SSE 20:45:06 47° E 20:48:57 10° NNE
CZ-4C R/B 3.8 20:38:45 10° NNW 20:45:24 40° NE 20:51:18 16° ESE
Cosmos 1500 4.3 20:43:18 10° NNE 20:46:30 26° ENE 20:47:10 24° E
ERS-1 Rocket 3.9 20:50:52 24° ESE 20:52:57 34° ENE 20:57:27 10° N
Cosmos 1503 Rocket 3.9 20:49:42 10° SSW 20:54:52 89° WNW 21:00:06 10° NNE
SPOT 5 3.9 20:52:52 25° ESE 20:54:56 35° ENE 20:59:38 10° N
Cosmos 1151 Rocket 2.9 20:58:03 25° S 21:00:29 74° E 21:04:53 10° NNE
Cosmos 1777 Rocket 4.4 20:58:39 30° SSE 21:00:31 40° ESE 21:05:23 10° NE
USA 290 2.4 20:58:58 10° NNW 21:02:11 64° WSW 21:02:58 45° S
Terra 3.0 21:02:22 24° E 21:03:46 29° ENE 21:07:51 10° N
Cosmos 1602 3.6 21:01:06 10° N 21:04:58 89° W 21:06:20 39° S
Cosmos 2278 Rocket 2.8 21:05:44 31° SE 21:07:01 35° ESE 21:12:06 10° NE
CZ-2C R/B 4.0 21:09:07 10° N 21:13:33 64° WNW 21:17:35 13° SSW
Cosmos 1515 Rocket 3.8 21:17:35 46° SE 21:18:15 50° E 21:22:31 10° NNE
Cosmos 1844 Rocket 4.3 21:14:22 10° WSW 21:19:24 34° NW 21:24:30 10° N
SPOT 1/Viking Rocket 3.7 21:16:47 29° S 21:19:31 70° WSW 21:24:43 10° NNW
Cosmos 2084 3.2 21:17:53 31° SSW 21:19:44 70° ESE 21:23:56 10° NE
SL-4 R/B 3.5 21:16:10 10° WNW 21:20:04 29° SW 21:21:08 26° SSW
X-37B 0.6 21:17:01 10° WNW 21:20:09 78° N 21:20:09 78° N
ARIANE 5 R/B 2.5 21:20:40 47° SSE 21:21:55 89° ENE 21:26:16 10° NNW
SWARM A 4.2 21:19:54 10° N 21:23:01 68° NE 21:23:01 68° NE
Cosmos 1437 3.2 21:25:46 50° N 21:25:46 50° N 21:28:01 10° N
JB-3 4.1 21:23:17 10° NNE 21:27:13 89° ESE 21:27:56 58° SSW
Cosmos 1633 Rocket 3.5 21:25:28 10° NNW 21:29:47 56° W 21:31:23 35° SSW
Cosmos 1812 2.5 21:31:31 74° ESE 21:31:37 75° E 21:35:29 10° NNE
Cosmos 1328 Rocket 4.2 21:36:50 27° SW 21:39:02 53° W 21:43:23 10° N
Cosmos 1470 Rocket 3.6 21:34:34 10° N 21:39:05 80° W 21:39:56 57° S
Cosmos 2184 Rocket 4.1 21:33:21 10° N 21:39:30 59° ENE 21:41:19 43° SE
Meteor 1-5 Rocket 4.0 21:35:13 10° N 21:40:39 79° E 21:42:00 52° SSE
ATLAS 5 CENTAUR R/B 2.7 21:39:19 10° NW 21:44:59 56° WSW 21:47:13 38° S
CARTOSAT-1 4.0 21:44:08 46° SW 21:45:01 55° W 21:49:17 10° NNW
Cosmos 2074 Rocket 4.0 21:41:12 10° N 21:47:31 71° E 21:49:23 47° SSE
NOSS 3-3 (A) 4.3 21:44:58 10° SW 21:50:39 64° NW 21:57:09 10° NNE
NOSS 3-3 (C) 4.2 21:45:04 10° SW 21:50:45 65° NW 21:57:16 10° NNE
Cosmos 1666 2.9 21:48:57 10° N 21:52:11 64° N 21:52:11 64° N
Nadezhda 1 Rocket 4.2 21:51:52 46° SE 21:53:08 54° E 21:59:13 10° NNE
Cosmos 1933 Rocket 3.4 21:49:16 10° N 21:53:38 86° W 21:53:49 81° SSW
Cosmos 1833 Rocket 2.6 21:48:49 10° NNW 21:54:31 83° ENE 21:55:42 58° SE
ATLAS 2AS CENTAUR R/B 3.9 21:49:51 10° NNW 21:56:36 35° NE 22:00:31 21° E
Meteor 2-12 Rocket 4.5 21:51:48 10° N 21:57:49 61° E 21:59:02 51° SE
BREEZE-M DEB (TANK) 4.2 21:57:19 10° NW 21:57:58 17° NNW 21:57:58 17° NNW
Cosmos 1538 Rocket 3.9 21:57:47 10° NNW 22:03:12 90° W 22:03:56 68° SSE
Iridium 4 Rocket 3.8 22:01:47 46° SSW 22:03:33 74° W 22:09:28 10° N
USA 305 3.9 21:59:59 10° NW 22:04:00 38° NNE 22:04:41 36° NE
Cosmos 1610 Rocket 4.4 22:03:26 10° N 22:09:34 67° E 22:10:38 57° SE
SJ 16-02 1.5 22:15:15 71° WNW 22:15:15 71° WNW 22:19:42 10° NNE
Cosmos 158 Rocket 3.8 22:10:34 10° NNW 22:15:27 70° ENE 22:15:28 70° ENE
Cosmos 2228 Rocket 3.1 22:17:34 74° N 22:17:34 74° N 22:21:38 10° N
Meteor 1-27 Rocket 3.6 22:18:37 68° SSE 22:19:20 78° E 22:25:14 10° NNE
Cosmos 1680 Rocket 4.1 22:15:58 10° N 22:21:04 44° ENE 22:21:27 44° ENE
Cosmos 2341 Rocket 4.5 22:16:06 10° N 22:22:14 46° ENE 22:23:08 43° E
USA 306 3.6 22:19:03 10° NW 22:23:05 48° NNE 22:23:05 48° NNE
COSMOS 2406 3.4 22:19:37 10° NNW 22:25:10 57° WSW 22:25:47 54° SW
Cosmos 2082 Rocket 2.0 22:22:16 10° NNW 22:27:55 79° ENE 22:28:19 74° ESE
ERS-1 Rocket 4.3 22:30:51 28° WSW 22:31:44 30° W 22:36:08 10° NW
Milstar 3 4.4 22:22:56 10° WSW 22:29:42 27° SSW 22:29:42 27° SSW
SPOT 5 4.3 22:32:05 28° WSW 22:33:00 30° W 22:37:32 10° NNW
CZ-4C R/B 3.2 22:27:04 10° NW 22:34:26 63° WSW 22:36:28 49° S
Cosmos 1271 Rocket 4.1 22:35:28 37° WNW 22:35:28 37° WNW 22:38:58 10° N
Terra 3.0 22:41:15 32° W 22:41:25 32° W 22:45:42 10° NNW
Meteor 1-11 Rocket 4.1 22:38:37 10° NNW 22:44:27 57° W 22:45:14 53° SW
Cosmos 1295 Rocket 4.5 22:38:30 10° N 22:44:51 77° W 22:45:45 65° SSW
USA 307 3.8 22:44:21 10° NW 22:47:31 46° NNW 22:47:31 46° NNW
Cosmos 1340 Rocket 4.0 22:46:51 10° N 22:49:40 43° N 22:49:40 43° N
Cosmos 2278 Rocket 3.5 22:47:29 18° WSW 22:51:03 36° WNW 22:56:16 10° N
Spot 4 4.1 22:53:27 64° NNE 22:53:27 64° NNE 22:57:45 10° N
Cosmos 923 Rocket 4.1 22:51:01 10° NNW 22:55:53 68° WNW 22:55:53 68° WNW
Cosmos 1898 Rocket 3.6 22:57:39 72° NE 22:57:39 72° NE 23:02:27 10° NNE
Cosmos 1536 4.4 22:56:50 10° NNW 22:59:30 32° NW 22:59:30 32° NW
Cosmos 2369 Rocket 3.6 23:03:27 25° ENE 23:03:27 25° ENE 23:06:42 10° NE
USA 308 4.2 22:57:48 10° NW 23:00:30 38° NW 23:00:30 38° NW
Meteor 2-9 Rocket 4.3 23:04:54 10° N 23:10:35 66° ENE 23:10:35 66° ENE
Cosmos 1943 Rocket 2.4 23:11:54 58° ENE 23:11:54 58° ENE 23:16:39 10° NNE
SL-8 Rocket 3.9 23:04:52 10° N 23:11:14 83° E 23:11:34 79° SE
ALOS 2 3.5 23:16:05 45° NNE 23:16:05 45° NNE 23:19:17 10° N
DNEPR-1 R/B 4.4 23:19:56 59° ENE 23:19:56 59° ENE 23:24:04 10° NE
Meteor 2-4 Rocket 4.3 23:20:31 48° ENE 23:20:31 48° ENE 23:25:27 10° NNE
Cosmos 44 3.7 23:15:48 10° NNW 23:20:48 67° NNE 23:20:48 67° NNE
Meteor 1-18 Rocket 4.2 23:33:04 79° NNW 23:33:04 79° NNW 23:38:24 10° N
NOSS 3-4 (A) 4.2 23:27:26 10° NW 23:34:15 48° WSW 23:34:27 48° WSW
NOSS 3-4 (C) 4.2 23:27:33 10° NW 23:34:22 48° WSW 23:34:34 48° WSW
Cosmos 1238 Rocket 4.0 23:30:37 10° NNW 23:36:39 59° W 23:36:39 59° W
SL-24 R/B - RUBIN 2 4.4 23:33:12 10° NW 23:37:29 55° NW 23:37:29 55° NW
SeaSat 1 3.4 23:35:00 10° NE 23:38:19 38° ENE 23:38:19 38° ENE
Cosmos 864 Rocket 4.4 23:33:48 10° N 23:39:58 77° W 23:39:58 77° W
Cosmos 1959 Rocket 4.4 23:36:36 10° NNW 23:42:50 71° W 23:42:51 71° W
USA 215 3.4 23:42:20 44° ESE 23:44:30 69° NE 23:51:00 10° NW
Cosmos 2297 4.3 23:45:51 48° WNW 23:46:22 50° WNW 23:51:55 10° NNE
ATLAS 2AS CENTAUR R/B 2.7 23:40:50 10° NW 23:47:56 63° WSW 23:47:56 63° WSW
Cosmos 2181 Rocket 4.4 23:52:11 49° W 23:52:39 50° WNW 23:58:37 10° N
